Weather Roundup
Issued by NWS Corpus Christi, TX

Home | Current Version | Previous Version | Text Only | Print | Product List | Glossary On
Versions: 1 2 3 4 5 6 7 8 9 10 11 12 13 14 15 16 17 18 19 20 21 22 23 24 25 26 27 28 29 30 31 32 33 34 35 36 37 38 39 40 41 42 43 44 45 46 47 48 49 50
000
ASUS44 KCRP 220510
HRRCRP

SOUTH TEXAS REGIONAL WEATHER ROUNDUP
NATIONAL WEATHER SERVICE CORPUS CHRISTI TX
1100 PM CST SAT JAN 21 2017


TXZ229>244-220600-
...CORPUS CHRISTI AREA OBSERVATIONS...

CITY           SKY/WX    TMP DP  RH WIND       PRES   REMARKS
CORPUS CHRISTI PTCLDY    70  46  42 N20G29    29.59R
NAS CORPUS CHR PTCLDY    72  52  49 NW25G37   29.58R
ROCKPORT       CLEAR     67  62  84 NW14      29.59R
KINGSVILLE NAS CLEAR     71  43  36 N21G33    29.61R
ALICE          CLEAR     69  40  34 N16G28    29.62R
ORANGE GROVE   CLEAR     69  42  37 N20       29.63R
FALFURRIAS     CLEAR     73  36  25 N23G37    29.59R
$$

...VICTORIA AREA OBSERVATIONS...

CITY           SKY/WX    TMP DP  RH WIND       PRES   REMARKS
VICTORIA       CLEAR     67  46  47 N9        29.60R
BEEVILLE       FAIR      67  46  46 N8        29.62R
PLEASANTON     CLOUDY    64  39  39 NW8       29.65R
SAN ANTONIO    CLOUDY    66  31  27 NW31G44   29.62R
$$

...LAREDO AREA OBSERVATIONS...

CITY           SKY/WX    TMP DP  RH WIND       PRES   REMARKS
LAREDO         CLEAR     66  40  38 N14       29.68R
COTULLA        CLEAR     65  39  38 NW14      29.67R
DEL RIO        PTCLDY    61  39  44 W25G33    29.73R
MCALLEN        PTCLDY    68  54  60 NW18      29.53R
HEBBRONVILLE   CLEAR     67  37  33 N14G22    29.66R
$$

...OTHER TEXAS OBSERVATIONS...

CITY           SKY/WX    TMP DP  RH WIND       PRES   REMARKS
BROWNSVILLE    MOCLDY    75  62  64 S16       29.46S
HOUSTON        CLOUDY    68  51  54 W17       29.59R THUNDER
COL. STATION   LGT RAIN  59  52  77 CALM      29.57F
AUSTIN         CLOUDY    67  35  30 W20G31    29.58R
WACO           MOCLDY    52  47  83 SW9       29.51F
FORT WORTH     MOCLDY    58  44  60 SW14      29.41F
WICHITA FALLS  CLOUDY    49  37  63 SW9       29.37F
LUBBOCK        MOCLDY    45  24  43 W30G38    29.45R
EL PASO        CLEAR     43  23  45 W28G44    29.93R
$$

...MARINE OBSERVATIONS...

STATION/POSITION TIME  SKY/WX   TEMP    WIND        PRES    VSBY  WAVE   SWELL
                                AIR SEA DIR/SP/G                  HT/PER HT/PER
                 (UTC)          (F)     (DEG/KT/KT) (MB)    (MI)  (FT/S) (FT/S)
PORT ARANSAS     0400            72 65  250/ 15/ 19  999.8R
BUOY 90 E PORT A 0450            74 73  200/  4/  4  998.7R         4/ 6   3/ 6
BUOY 45 SE BAFFI 0450            72     190/  8/  8  998.4R         4/ 8   3/ 8
BUOY 200 E PT IS 0450            74 74  190/ 16/ 17  999.9S         6/ 7
BUOY 15 E GALVES 0450            69 67  210/  8/ 10  999.3R         3/ 7   3/ 7
$$



USA.gov is the U.S. government's official web portal to all federal, state and local government web resources and services.